Wind_Speed
10 9 8 5 4 4 3 4 4 5 7 8 8 9 10 12 12 11 8 9 9 10 10 9 9 9 10 10 10 10 11 10 10 10 9 9 8 8 7 8 8 8 8 8
10 9 9 8 8 7 7 6 5 6 8 8 9 9 10 11 13 12 10 10 10 10 10 9 9 9 10 11 11 12 12 11 10 10 10 9 8 8 8 8 9 9 9 9
12 11 12 11 10 10 9 8 8 8 9 9 10 9 10 11 14 13 10 10 10 10 11 11 11 11 11 11 12 12 13 12 11 11 11 10 10 9 9 9 9 9 9 9
16 15 15 13 12 11 9 9 10 11 10 9 9 11 13 12 12 13 12 10 11 11 12 12 12 12 13 13 13 13 13 13 13 12 12 11 11 10 10 10 11 11 11 11
18 17 17 15 14 13 12 11 12 12 11 9 8 11 12 13 13 13 13 11 10 11 12 12 12 13 13 13 14 13 13 14 14 13 13 11 11 11 11 11 12 12 12 13
20 19 18 17 16 15 14 12 10 9 9 11 10 11 13 13 12 12 13 13 12 12 12 12 12 13 13 14 14 14 14 15 15 15 14 13 13 13 13 13 13 13 13 14
20 20 19 18 17 16 14 13 11 11 11 12 9 11 14 13 13 13 13 14 14 14 14 14 13 14 14 14 14 15 15 15 15 15 14 14 13 13 14 14 14 15 15 15
19 20 20 19 19 17 17 15 13 13 12 10 11 13 14 14 15 15 15 15 16 16 16 15 15 15 14 14 14 15 15 16 16 15 15 14 14 15 15 15 15 16 16 16
19 19 19 20 19 18 18 17 15 16 14 14 13 13 15 15 16 17 17 17 17 17 16 16 17 16 15 15 15 15 15 16 16 15 15 15 16 16 16 16 16 17 17 17
22 22 19 18 19 20 19 17 16 16 17 17 14 14 17 19 19 19 20 20 19 18 17 17 17 18 17 16 16 16 16 16 16 16 16 17 17 17 18 18 18 18 18 19
24 24 21 19 20 20 19 20 19 19 18 18 17 17 18 21 21 20 20 21 20 20 19 18 18 18 18 18 18 17 17 17 18 17 18 18 18 19 19 19 19 19 20 21
24 23 23 22 20 21 21 21 21 21 22 21 20 20 19 19 21 22 22 22 22 21 21 20 20 19 19 19 19 19 19 19 19 19 19 19 20 21 21 22 22 22 22 23
26 25 25 22 19 21 22 23 23 22 22 22 21 21 21 22 22 24 25 25 23 22 23 22 21 21 20 21 21 21 20 20 21 21 21 21 22 23 24 24 24 24 25 25
29 28 27 25 22 22 22 22 22 23 24 24 24 24 23 24 25 26 26 26 23 23 24 24 23 22 22 22 22 22 22 23 22 23 23 23 24 25 26 25 25 26 27 27
29 29 29 28 26 24 24 24 24 24 25 26 26 25 26 27 27 27 27 27 25 25 25 24 23 23 24 24 24 24 24 24 25 25 25 25 26 27 27 27 27 28 28 29
27 28 28 28 26 25 25 25 25 24 24 25 27 28 28 30 29 29 28 28 26 26 26 26 25 25 26 26 26 26 27 27 27 28 28 28 28 28 29 29 30 30 30 30
27 29 28 28 26 27 27 25 25 25 25 25 28 30 30 32 30 30 30 31 30 29 28 28 28 28 28 28 28 29 29 29 29 30 30 30 30 30 30 31 31 31 31 31
29 30 30 28 28 29 28 26 26 26 27 28 31 32 32 33 32 33 33 32 31 31 30 30 30 30 30 30 31 31 31 32 32 32 32 32 32 32 32 32 32 32 32 31
28 30 31 30 30 29 27 27 27 27 30 32 33 34 33 32 34 35 34 33 32 32 32 32 33 33 33 33 33 33 34 34 34 34 34 34 34 34 34 34 34 32 32 32
28 30 31 31 30 30 29 29 29 29 33 34 34 33 33 34 35 36 32 32 33 34 34 34 35 35 35 35 35 35 36 36 36 36 36 36 36 36 36 36 35 34 33 33
28 30 31 32 32 30 31 31 30 32 34 36 35 36 36 36 36 37 36 35 35 35 36 36 37 37 38 37 37 37 37 38 37 37 37 38 37 36 36 36 35 34 34 33
28 29 30 31 32 34 35 33 33 33 35 36 36 36 37 36 36 37 37 37 36 36 36 37 37 37 38 38 38 37 37 38 37 38 38 38 37 37 37 36 36 35 35 34
29 30 32 33 33 32 33 34 35 36 37 37 37 36 36 36 36 37 38 37 37 36 37 37 38 38 38 38 37 36 35 36 37 38 38 38 39 38 37 36 36 36 36 35
30 30 31 32 34 34 36 37 36 36 37 38 38 36 35 36 36 36 37 37 36 36 36 36 37 38 39 39 38 37 36 36 37 37 37 37 37 37 37 36 36 36 36 36
32 32 32 33 33 33 35 37 37 37 37 37 37 37 37 37 37 37 37 37 37 37 36 36 37 38 39 38 38 37 37 36 37 37 37 37 37 37 36 36 36 35 35 35
31 32 33 34 34 35 36 35 35 36 36 37 37 37 37 38 38 38 38 38 37 37 38 38 37 37 37 38 37 38 38 38 38 38 38 38 38 37 36 36 36 36 36 36
Wind_Direction
199 205 203 208 236 263 258 266 272 288 294 303 314 319 323 330 332 338 343 349 346 340 338 340 339 342 345 345 344 340 336 332 332 335 337 337 339 338 334 327 323 320 321 319
212 223 219 212 228 243 252 264 274 277 281 294 300 316 315 319 323 329 338 342 339 335 334 335 334 336 341 344 345 342 342 337 333 331 330 332 335 334 333 335 333 330 331 328
225 226 230 229 233 243 244 253 265 268 273 285 300 308 316 312 310 318 325 328 332 334 333 333 329 330 334 337 339 338 337 337 334 334 333 333 333 331 333 334 335 330 327 324
230 230 235 237 239 242 251 255 259 259 266 274 285 294 301 302 304 313 316 324 330 336 333 333 327 325 329 333 334 335 336 336 334 333 331 333 334 333 330 330 331 329 326 323
229 232 237 238 240 240 241 245 254 255 258 264 271 276 287 297 300 305 312 316 322 327 325 324 326 326 328 331 333 332 331 331 330 328 327 327 326 327 327 328 330 329 329 327
230 235 240 243 243 245 245 250 257 265 265 266 263 270 274 278 286 295 302 306 310 311 313 315 318 321 324 326 329 330 327 325 325 323 321 320 320 321 322 323 325 326 326 326
238 240 242 244 247 248 247 249 260 269 265 272 272 270 276 278 280 283 290 298 303 303 306 308 309 312 317 321 324 324 322 320 321 319 319 318 316 317 319 318 318 320 321 321
244 248 246 246 249 248 247 246 254 263 265 274 278 273 278 285 281 279 279 288 295 296 299 301 303 306 309 313 317 318 318 318 318 314 312 315 315 313 314 315 315 316 316 316
232 243 248 250 251 252 251 248 248 258 258 264 262 270 276 279 279 279 282 285 290 293 293 296 301 302 304 306 309 311 314 317 317 313 308 309 310 312 311 312 312 313 313 314
232 235 238 245 249 251 251 250 249 254 256 260 261 263 264 268 272 276 281 284 288 289 292 294 296 298 299 301 303 306 310 313 314 312 309 309 308 309 308 309 310 310 312 315
236 237 238 238 245 250 250 249 248 249 250 256 264 266 266 271 273 272 274 278 282 285 291 293 293 295 295 296 298 302 306 307 307 307 308 308 306 308 308 307 308 308 309 310
240 239 240 238 242 249 248 247 247 252 256 257 260 263 263 268 272 272 271 273 278 283 287 290 290 290 292 293 295 298 301 303 303 304 304 304 304 305 305 304 304 305 306 306
236 236 242 241 238 244 248 248 248 249 255 258 261 267 269 266 265 269 272 270 273 280 285 287 288 289 290 290 291 295 298 300 300 301 301 301 301 302 302 303 301 303 304 303
235 235 236 236 232 235 242 246 246 245 247 255 257 262 265 266 267 268 270 273 274 278 282 285 286 286 287 288 289 291 293 295 296 297 297 298 299 300 299 301 301 301 302 303
238 239 238 237 236 240 245 245 246 247 247 250 255 258 262 264 268 272 275 274 276 278 280 282 283 283 284 285 286 288 289 291 293 295 296 297 297 298 297 298 299 301 300 301
239 240 242 242 241 244 248 249 249 247 249 252 256 258 261 264 267 270 274 275 273 276 278 279 280 280 281 282 283 284 286 288 291 293 293 294 295 296 296 297 298 301 300 300
240 242 244 245 246 248 247 244 249 252 251 252 253 254 256 261 265 270 273 272 273 274 275 277 278 279 279 280 281 283 285 287 288 289 291 290 292 294 294 296 297 299 299 298
245 244 245 247 249 249 248 244 245 250 250 250 253 257 261 263 265 268 270 271 272 274 275 276 277 279 279 279 279 282 283 285 286 287 289 289 290 291 292 293 294 295 297 297
246 246 246 246 250 254 251 250 246 247 251 252 254 258 261 265 266 268 270 272 274 274 275 276 276 277 279 280 280 282 283 284 284 284 286 287 288 289 290 291 291 292 294 295
245 246 246 246 249 252 253 252 252 252 253 254 257 260 263 266 267 270 271 273 274 273 274 275 276 277 278 279 280 281 282 283 284 284 285 286 286 286 288 288 289 290 291 292
247 246 247 248 250 251 251 252 254 253 255 259 262 266 266 266 269 272 273 273 274 274 274 275 275 276 277 278 280 281 282 282 283 282 283 285 285 285 286 287 288 289 289 290
247 247 250 250 249 250 251 250 251 254 258 261 263 266 267 269 271 272 273 274 274 274 274 275 275 276 276 277 278 279 280 281 282 283 283 283 284 286 285 287 287 288 289 291
252 252 251 249 251 254 256 255 256 258 260 263 264 268 270 270 272 272 274 275 274 275 275 275 275 275 275 276 277 278 278 279 281 283 284 285 286 287 287 287 287 288 289 290
250 252 253 254 252 253 255 257 259 259 261 263 265 269 270 271 271 272 273 275 275 276 276 275 275 276 276 276 277 278 279 280 282 283 284 286 287 287 286 287 287 288 288 288
253 255 255 256 256 257 258 259 261 262 264 267 268 269 269 270 271 273 274 275 275 276 275 276 276 277 277 276 277 278 279 279 280 281 284 285 287 288 287 286 287 287 288 287
250 253 255 256 258 260 261 262 263 263 266 268 269 269 269 270 273 274 274 275 275 275 275 277 278 278 279 279 278 278 279 279 279 281 283 284 285 286 286 284 284 285 286 286
Height
5920 5922 5924 5926 5927 5929 5930 5931 5932 5932 5932 5930 5929 5927 5924 5923 5921 5919 5916 5915 5914 5912 5912 5911 5910 5909 5908 5907 5906 5904 5903 5902 5901 5900 5899 5898 5897 5896 5895 5894 5893 5891 5890 5890
5920 5922 5923 5925 5927 5928 5929 5929 5930 5931 5931 5930 5928 5927 5925 5923 5921 5920 5918 5916 5914 5913 5912 5911 5910 5909 5908 5907 5906 5904 5903 5901 5900 5899 5898 5897 5897 5895 5894 5893 5892 5891 5890 5889
5918 5922 5922 5923 5926 5927 5928 5929 5930 5930 5929 5929 5928 5926 5925 5923 5921 5919 5918 5917 5915 5913 5911 5911 5910 5909 5908 5907 5905 5904 5902 5901 5900 5899 5897 5897 5896 5895 5894 5893 5892 5891 5889 5888
5916 5919 5920 5921 5923 5925 5926 5927 5927 5927 5927 5927 5928 5927 5925 5923 5921 5919 5917 5916 5915 5913 5911 5910 5909 5908 5907 5906 5905 5903 5902 5900 5899 5898 5897 5896 5895 5894 5893 5892 5891 5890 5888 5887
5913 5916 5917 5918 5921 5922 5923 5924 5924 5924 5924 5924 5925 5925 5924 5922 5920 5918 5916 5914 5913 5912 5911 5909 5908 5907 5906 5905 5904 5902 5901 5900 5899 5897 5896 5895 5894 5893 5892 5891 5890 5888 5887 5886
5909 5912 5913 5915 5917 5918 5920 5921 5921 5921 5922 5922 5923 5923 5922 5920 5919 5917 5915 5913 5912 5911 5909 5907 5906 5906 5905 5904 5902 5901 5900 5899 5897 5896 5895 5894 5893 5892 5891 5890 5889 5887 5886 5884
5905 5908 5910 5912 5914 5916 5917 5919 5919 5919 5919 5919 5920 5921 5921 5918 5918 5916 5914 5912 5911 5910 5908 5906 5905 5904 5903 5902 5901 5900 5898 5897 5895 5894 5893 5892 5891 5890 5889 5888 5887 5885 5884 5882
5903 5905 5907 5908 5910 5911 5913 5915 5917 5918 5918 5918 5918 5918 5917 5916 5915 5913 5912 5911 5909 5908 5906 5905 5903 5902 5901 5900 5899 5898 5896 5895 5893 5892 5891 5890 5889 5888 5887 5885 5884 5883 5881 5880
5899 5902 5904 5904 5906 5908 5909 5911 5914 5915 5914 5915 5915 5915 5914 5913 5912 5910 5909 5909 5907 5905 5904 5902 5901 5900 5899 5898 5897 5896 5894 5893 5891 5890 5888 5887 5886 5885 5884 5882 5881 5880 5878 5877
5893 5896 5898 5901 5903 5904 5905 5907 5910 5911 5911 5911 5912 5912 5911 5909 5908 5907 5906 5905 5904 5902 5901 5900 5899 5897 5896 5896 5894 5893 5892 5890 5889 5887 5886 5885 5884 5883 5881 5880 5878 5877 5875 5873
5888 5891 5894 5896 5898 5899 5902 5903 5904 5905 5906 5907 5908 5910 5906 5906 5904 5903 5902 5900 5900 5899 5898 5897 5895 5894 5893 5892 5891 5890 5889 5888 5886 5885 5884 5882 5881 5879 5878 5876 5875 5873 5871 5869
5882 5885 5887 5890 5893 5895 5897 5898 5900 5902 5901 5902 5902 5905 5900 5901 5899 5898 5896 5896 5894 5894 5894 5893 5892 5891 5890 5889 5888 5886 5886 5884 5883 5882 5880 5878 5877 5875 5874 5872 5870 5869 5867 5865
5875 5879 5882 5885 5889 5891 5891 5893 5894 5896 5897 5897 5898 5900 5894 5894 5893 5892 5891 5889 5889 5889 5889 5888 5888 5887 5886 5885 5884 5882 5881 5880 5879 5878 5876 5874 5872 5871 5869 5867 5865 5863 5862 5860
5869 5871 5875 5879 5881 5883 5884 5887 5888 5890 5891 5892 5892 5892 5889 5887 5885 5884 5884 5883 5881 5883 5883 5883 5882 5882 5881 5880 5879 5878 5877 5875 5874 5873 5871 5869 5867 5866 5864 5862 5859 5858 5856 5854
5862 5865 5867 5870 5873 5875 5877 5879 5881 5883 5883 5885 5884 5884 5882 5880 5879 5878 5878 5877 5876 5877 5877 5877 5877 5876 5876 5875 5874 5873 5872 5870 5869 5867 5866 5864 5862 5860 5858 5855 5854 5851 5849 5847
5855 5858 5860 5862 5866 5868 5869 5872 5874 5875 5877 5877 5877 5877 5874 5872 5872 5872 5872 5871 5871 5871 5871 5871 5871 5870 5870 5869 5868 5867 5866 5864 5863 5861 5859 5857 5855 5853 5851 5849 5847 5844 5842 5840
5848 5850 5852 5855 5858 5860 5862 5866 5868 5869 5870 5870 5869 5868 5866 5866 5864 5865 5865 5864 5864 5864 5864 5864 5863 5863 5863 5862 5861 5860 5859 5857 5856 5854 5853 5850 5848 5846 5844 5842 5840 5837 5835 5833
5841 5843 5846 5848 5851 5851 5857 5858 5859 5859 5859 5859 5859 5858 5858 5858 5857 5857 5857 5856 5856 5857 5857 5856 5855 5855 5855 5854 5853 5852 5851 5850 5848 5847 5845 5843 5841 5838 5836 5834 5832 5829 5827 5825
5834 5836 5838 5841 5842 5844 5849 5849 5849 5850 5849 5849 5850 5850 5849 5850 5849 5849 5849 5849 5848 5848 5848 5848 5847 5847 5846 5845 5844 5844 5843 5841 5840 5838 5837 5834 5832 5830 5828 5826 5823 5821 5819 5817
5827 5828 5831 5832 5834 5836 5839 5840 5841 5843 5840 5840 5841 5841 5841 5842 5841 5840 5840 5840 5840 5838 5839 5839 5838 5837 5837 5836 5835 5834 5833 5832 5830 5829 5827 5825 5823 5821 5819 5816 5814 5812 5810 5808
5819 5820 5822 5824 5825 5828 5828 5829 5832 5834 5832 5832 5833 5833 5833 5833 5831 5831 5831 5831 5830 5829 5828 5829 5828 5828 5827 5827 5826 5825 5823 5822 5820 5819 5817 5816 5814 5812 5810 5807 5805 5803 5801 5800
5811 5812 5814 5816 5818 5820 5818 5821 5823 5823 5823 5824 5824 5824 5823 5823 5822 5821 5821 5821 5820 5818 5818 5818 5818 5818 5817 5816 5815 5814 5813 5811 5809 5808 5807 5805 5804 5802 5800 5798 5796 5794 5792 5790
5804 5805 5805 5807 5809 5810 5810 5811 5812 5813 5814 5814 5814 5814 5813 5813 5812 5812 5811 5811 5810 5809 5808 5808 5807 5807 5807 5806 5805 5804 5802 5801 5799 5798 5797 5795 5793 5791 5789 5788 5786 5784 5783 5781
5794 5795 5797 5798 5799 5800 5802 5802 5802 5803 5804 5805 5804 5803 5804 5803 5802 5802 5802 5801 5801 5800 5798 5797 5797 5796 5795 5795 5794 5793 5792 5791 5790 5788 5786 5784 5782 5780 5779 5777 5776 5774 5773 5771
5787 5788 5789 5789 5791 5792 5792 5793 5793 5794 5795 5795 5795 5794 5794 5794 5793 5792 5792 5791 5790 5789 5788 5787 5786 5785 5784 5783 5783 5782 5781 5781 5779 5778 5776 5774 5772 5770 5768 5767 5765 5764 5763 5762
5779 5779 5780 5781 5782 5782 5783 5784 5785 5784 5785 5785 5785 5785 5784 5783 5783 5782 5782 5781 5780 5779 5778 5776 5775 5774 5773 5772 5771 5771 5770 5769 5768 5767 5766 5764 5762 5760 5758 5756 5756 5755 5754 5752